This is the latest recevied weather packets stored in our database for station/object K8FJG-13. If no packets are shown the sender has not sent any weather packets the latest 10 day(s).
| Time | Temp. | Humidity | Pressure | Rain* | Wind** | Luminosity | Snow |
|---|---|---|---|---|---|---|---|
| 1777622750 | 5° C | 84% | 968.1 hPa | - | - | - | - |
| 1777622147 | 5° C | 81% | 968.3 hPa | - | - | - | - |
| 1777621544 | 5° C | 83% | 968.4 hPa | - | - | - | - |
| 1777620941 | 4.44° C | 84% | 968.3 hPa | - | - | - | - |
| 1777620337 | 4.44° C | 85% | 968.2 hPa | - | - | - | - |
| 1777619734 | 4.44° C | 86% | 968.1 hPa | - | - | - | - |
| 1777619131 | 4.44° C | 84% | 968.2 hPa | - | - | - | - |
| 1777618528 | 4.44° C | 85% | 968.2 hPa | - | - | - | - |
| 1777617925 | 4.44° C | 84% | 968.3 hPa | - | - | - | - |
| 1777617322 | 4.44° C | 83% | 968.6 hPa | - | - | - | - |
| 1777616719 | 4.44° C | 85% | 968.5 hPa | - | - | - | - |
| 1777616116 | 4.44° C | 83% | 968.9 hPa | - | - | - | - |
| 1777615513 | 3.89° C | 83% | 968.9 hPa | - | - | - | - |
| 1777614909 | 3.89° C | 84% | 969 hPa | - | - | - | - |
| 1777614306 | 3.89° C | 82% | 969 hPa | - | - | - | - |
| 1777613703 | 3.33° C | 81% | 969.3 hPa | - | - | - | - |
| 1777613100 | 3.33° C | 83% | 969.5 hPa | - | - | - | - |
| 1777612497 | 2.78° C | 83% | 969.5 hPa | - | - | - | - |
| 1777611894 | 2.78° C | 84% | 969.5 hPa | - | - | - | - |
| 1777611291 | 2.78° C | 82% | 969.4 hPa | - | - | - | - |
| 1777610688 | 2.78° C | 84% | 969.5 hPa | - | - | - | - |
| 1777610084 | 3.33° C | 85% | 969.5 hPa | - | - | - | - |
| 1777609481 | 3.33° C | 84% | 969.6 hPa | - | - | - | - |
| 1777608878 | 3.33° C | 82% | 969.5 hPa | - | - | - | - |
| 1777608275 | 3.33° C | 80% | 969.6 hPa | - | - | - | - |
* Rain since midnight (hover to see other rain measurements)
** Current wind speed in m/s (hover to see current wind gust speed)